Year,Month,Day,Hour,Minute,Value (Times are PST for temperature in C)
2009,12,10,10,28,4.50
2009,12,10,10,29,4.40
2009,12,10,10,30,4.30
2009,12,10,10,31,4.20
2009,12,10,10,32,4.00
2009,12,10,10,33,3.90
2009,12,10,10,34,3.80
2009,12,10,10,35,3.80
2009,12,10,10,36,3.60
2009,12,10,10,37,3.50
2009,12,10,10,38,3.40
2009,12,10,10,39,3.30
2009,12,10,10,40,3.20
2009,12,10,10,41,3.10
2009,12,10,10,42,3.10
2009,12,10,10,43,3.20
2009,12,10,10,44,3.20
2009,12,10,10,45,3.10
2009,12,10,10,46,3.00
2009,12,10,10,47,2.80
2009,12,10,10,48,2.70
2009,12,10,10,49,2.60
2009,12,10,10,50,2.50
2009,12,10,10,51,2.30
2009,12,10,10,52,2.20
2009,12,10,10,53,2.00
2009,12,10,10,54,2.00
2009,12,10,10,55,1.90
2009,12,10,10,56,1.90
2009,12,10,10,57,1.90
2009,12,10,10,58,1.90
2009,12,10,10,59,1.90
2009,12,10,11,00,1.90
2009,12,10,11,01,1.80
2009,12,10,11,02,1.80
2009,12,10,11,03,1.80
2009,12,10,11,04,1.80
2009,12,10,11,05,1.80
2009,12,10,11,06,1.80
2009,12,10,11,07,1.80
2009,12,10,11,08,1.80
2009,12,10,11,09,1.80
2009,12,10,11,10,1.80
2009,12,10,11,11,1.70
2009,12,10,11,12,1.70
2009,12,10,11,13,1.80
2009,12,10,11,14,1.80
2009,12,10,11,15,1.80
2009,12,10,11,16,1.80
2009,12,10,11,17,1.80
2009,12,10,11,18,1.80
2009,12,10,11,19,1.80
2009,12,10,11,20,1.80
2009,12,10,11,21,1.80
2009,12,10,11,22,1.80
2009,12,10,11,23,1.70
2009,12,10,11,24,1.70
2009,12,10,11,25,1.60
2009,12,10,11,26,1.50
2009,12,10,11,27,1.50
2009,12,10,11,28,1.50
2009,12,10,11,29,1.50
2009,12,10,11,30,1.50
2009,12,10,11,31,1.50
2009,12,10,11,32,1.50
2009,12,10,11,33,1.50
2009,12,10,11,34,1.50
2009,12,10,11,35,1.50
2009,12,10,11,36,1.50
2009,12,10,11,37,1.50
2009,12,10,11,38,1.60
2009,12,10,11,39,1.60
2009,12,10,11,40,1.60
2009,12,10,11,41,1.60
2009,12,10,11,42,1.70
2009,12,10,11,43,1.70
2009,12,10,11,44,1.70
2009,12,10,11,45,1.70
2009,12,10,11,46,1.80
2009,12,10,11,47,1.80
2009,12,10,11,48,1.90
2009,12,10,11,49,2.00
2009,12,10,11,50,2.00
2009,12,10,11,51,2.10
2009,12,10,11,52,2.20
2009,12,10,11,53,2.20
2009,12,10,11,54,2.20
2009,12,10,11,55,2.20
2009,12,10,11,56,2.30
2009,12,10,11,57,2.30
2009,12,10,11,58,2.40
2009,12,10,11,59,2.50
2009,12,10,12,00,2.50
2009,12,10,12,01,2.60
2009,12,10,12,02,2.70
2009,12,10,12,03,2.70
2009,12,10,12,04,2.70
2009,12,10,12,05,2.70
2009,12,10,12,06,2.70
2009,12,10,12,07,2.80
2009,12,10,12,08,2.80
2009,12,10,12,09,2.80
2009,12,10,12,10,2.70
2009,12,10,12,11,2.70
2009,12,10,12,12,2.70
2009,12,10,12,13,2.70
2009,12,10,12,14,2.70
2009,12,10,12,15,2.70
2009,12,10,12,16,2.70
2009,12,10,12,17,2.70
2009,12,10,12,18,2.70
2009,12,10,12,19,2.70
2009,12,10,12,20,2.60
2009,12,10,12,21,2.60
2009,12,10,12,22,2.50
2009,12,10,12,23,2.50
2009,12,10,12,24,2.50
2009,12,10,12,25,2.50
2009,12,10,12,26,2.50
2009,12,10,12,27,2.50
2009,12,10,12,28,2.40
2009,12,10,12,29,2.30
2009,12,10,12,30,2.30
2009,12,10,12,31,2.20
2009,12,10,12,32,2.20
2009,12,10,12,33,2.20
2009,12,10,12,34,2.20
2009,12,10,12,35,2.20
2009,12,10,12,36,2.10
2009,12,10,12,37,2.10
2009,12,10,12,38,2.10
2009,12,10,12,39,2.10
2009,12,10,12,40,2.10
2009,12,10,12,41,2.00
2009,12,10,12,42,2.00
2009,12,10,12,43,1.90
2009,12,10,12,44,1.80
2009,12,10,12,45,1.80
2009,12,10,12,46,1.80
2009,12,10,12,47,1.80
2009,12,10,12,48,1.70
2009,12,10,12,49,1.70
2009,12,10,12,50,1.70
2009,12,10,12,51,1.70
2009,12,10,12,52,1.70
2009,12,10,12,53,1.70
2009,12,10,12,54,1.70
2009,12,10,12,55,1.70
2009,12,10,12,56,1.70
2009,12,10,12,57,1.60
2009,12,10,12,58,1.60
2009,12,10,12,59,1.60
2009,12,10,13,00,1.60
2009,12,10,13,01,1.60
2009,12,10,13,02,1.60
2009,12,10,13,03,1.60
2009,12,10,13,04,1.60
2009,12,10,13,05,1.60
2009,12,10,13,06,1.70
2009,12,10,13,07,1.70
2009,12,10,13,08,1.70
2009,12,10,13,09,1.70
2009,12,10,13,10,1.70
2009,12,10,13,11,1.80
2009,12,10,13,12,1.80
2009,12,10,13,13,1.70
2009,12,10,13,14,1.70
2009,12,10,13,15,1.70
2009,12,10,13,16,1.80
2009,12,10,13,17,1.80
2009,12,10,13,18,1.80
2009,12,10,13,19,1.80
2009,12,10,13,20,1.80
2009,12,10,13,21,1.80
2009,12,10,13,22,1.80
2009,12,10,13,23,1.80
2009,12,10,13,24,1.80
2009,12,10,13,25,1.80
2009,12,10,13,26,1.80
2009,12,10,13,27,1.80
2009,12,10,13,28,1.80
2009,12,10,13,29,1.80
2009,12,10,13,30,1.90
2009,12,10,13,31,1.90
2009,12,10,13,32,2.00
2009,12,10,13,33,2.00
2009,12,10,13,34,2.10
2009,12,10,13,35,2.10
2009,12,10,13,36,2.10
2009,12,10,13,37,2.20
2009,12,10,13,38,2.20
2009,12,10,13,39,2.20
2009,12,10,13,40,2.20
2009,12,10,13,41,2.20
2009,12,10,13,42,2.30
2009,12,10,13,43,2.30
2009,12,10,13,44,2.30
2009,12,10,13,45,2.30
2009,12,10,13,46,2.20
2009,12,10,13,47,2.20
2009,12,10,13,48,2.10
2009,12,10,13,49,2.10
2009,12,10,13,50,2.00
2009,12,10,13,51,2.00
2009,12,10,13,52,2.00
2009,12,10,13,53,1.90
2009,12,10,13,54,1.80
2009,12,10,13,55,1.80
2009,12,10,13,56,1.80
2009,12,10,13,57,1.80
2009,12,10,13,58,1.70
2009,12,10,13,59,1.70
2009,12,10,14,00,1.70
2009,12,10,14,01,1.60
2009,12,10,14,02,1.60
2009,12,10,14,03,1.60
2009,12,10,14,04,1.60
2009,12,10,14,05,1.60
2009,12,10,14,06,1.60
2009,12,10,14,07,1.60
2009,12,10,14,08,1.50
2009,12,10,14,09,1.50
2009,12,10,14,10,1.50
2009,12,10,14,11,1.50
2009,12,10,14,12,1.40
2009,12,10,14,13,1.40
2009,12,10,14,14,1.40
2009,12,10,14,15,1.50
2009,12,10,14,16,1.50
2009,12,10,14,17,1.50
2009,12,10,14,18,1.50
2009,12,10,14,19,1.50
2009,12,10,14,20,1.50
2009,12,10,14,21,1.60
2009,12,10,14,22,1.60
2009,12,10,14,23,1.60
2009,12,10,14,24,1.60
2009,12,10,14,25,1.70
2009,12,10,14,26,1.70
2009,12,10,14,27,1.70
2009,12,10,14,28,1.70
2009,12,10,14,29,1.70
2009,12,10,14,30,1.70
2009,12,10,14,31,1.70
2009,12,10,14,32,1.70
2009,12,10,14,33,1.70
2009,12,10,14,34,1.70
2009,12,10,14,35,1.80
2009,12,10,14,36,1.80
2009,12,10,14,37,1.80
2009,12,10,14,38,1.80
2009,12,10,14,39,1.80
2009,12,10,14,40,1.80
2009,12,10,14,41,1.80
2009,12,10,14,42,1.80
2009,12,10,14,43,1.80
2009,12,10,14,44,1.80
2009,12,10,14,45,1.80
2009,12,10,14,46,1.80
2009,12,10,14,47,1.70
2009,12,10,14,48,1.70
2009,12,10,14,49,1.70
2009,12,10,14,50,1.70
2009,12,10,14,51,1.70
2009,12,10,14,52,1.70
2009,12,10,14,53,1.70
2009,12,10,14,54,1.70
2009,12,10,14,55,1.70
2009,12,10,14,56,1.70
2009,12,10,14,57,1.70
2009,12,10,14,58,1.70
2009,12,10,14,59,1.70
2009,12,10,15,00,1.80
2009,12,10,15,01,1.80
2009,12,10,15,02,1.80
2009,12,10,15,03,1.80
2009,12,10,15,04,1.80
2009,12,10,15,05,1.80
2009,12,10,15,06,1.80
2009,12,10,15,07,1.80
2009,12,10,15,08,1.80
2009,12,10,15,09,1.80
2009,12,10,15,10,1.70
2009,12,10,15,11,1.70
2009,12,10,15,12,1.80
2009,12,10,15,13,1.80
2009,12,10,15,14,1.80
2009,12,10,15,15,1.80
2009,12,10,15,16,1.80
2009,12,10,15,17,1.80
2009,12,10,15,18,1.80
2009,12,10,15,19,1.80
2009,12,10,15,20,1.80
2009,12,10,15,21,1.80
2009,12,10,15,22,1.80
2009,12,10,15,23,1.80
2009,12,10,15,24,1.80
2009,12,10,15,25,1.80
2009,12,10,15,26,1.80
2009,12,10,15,27,1.80
2009,12,10,15,28,1.80
2009,12,10,15,29,1.70
2009,12,10,15,30,1.70
2009,12,10,15,31,1.70
2009,12,10,15,32,1.70
2009,12,10,15,33,1.70
2009,12,10,15,34,1.70
2009,12,10,15,35,1.70
2009,12,10,15,36,1.70
2009,12,10,15,37,1.70
2009,12,10,15,38,1.70
2009,12,10,15,39,1.60
2009,12,10,15,40,1.60
2009,12,10,15,41,1.60
2009,12,10,15,42,1.60
2009,12,10,15,43,1.60
2009,12,10,15,44,1.60
2009,12,10,15,45,1.60
2009,12,10,15,46,1.60
2009,12,10,15,47,1.60
2009,12,10,15,48,1.50
2009,12,10,15,49,1.50
2009,12,10,15,50,1.50
2009,12,10,15,51,1.50
2009,12,10,15,52,1.50
2009,12,10,15,53,1.50
2009,12,10,15,54,1.50
2009,12,10,15,55,1.50
2009,12,10,15,56,1.50
2009,12,10,15,57,1.50
2009,12,10,15,58,1.50
2009,12,10,15,59,1.50
2009,12,10,16,00,1.50
2009,12,10,16,01,1.50
2009,12,10,16,02,1.50
2009,12,10,16,03,1.50
2009,12,10,16,04,1.50
2009,12,10,16,05,1.50
2009,12,10,16,06,1.50
2009,12,10,16,07,1.50
2009,12,10,16,08,1.50
2009,12,10,16,09,1.50
2009,12,10,16,10,1.50
2009,12,10,16,11,1.50
2009,12,10,16,12,1.50
2009,12,10,16,13,1.50
2009,12,10,16,14,1.50
2009,12,10,16,15,1.50
2009,12,10,16,16,1.50
2009,12,10,16,17,1.50
2009,12,10,16,18,1.50
2009,12,10,16,19,1.50
2009,12,10,16,20,1.50
2009,12,10,16,21,1.50
2009,12,10,16,22,1.50
2009,12,10,16,23,1.50
2009,12,10,16,24,1.50
2009,12,10,16,25,1.50
2009,12,10,16,26,1.50
2009,12,10,16,27,1.50
2009,12,10,16,28,1.50
2009,12,10,16,29,1.40
2009,12,10,16,30,1.40
2009,12,10,16,31,1.50
2009,12,10,16,32,1.50
2009,12,10,16,33,1.50
2009,12,10,16,34,1.40
2009,12,10,16,35,1.40
2009,12,10,16,36,1.40
2009,12,10,16,37,1.40
2009,12,10,16,38,1.40
2009,12,10,16,39,1.40
2009,12,10,16,40,1.40
2009,12,10,16,41,1.40
2009,12,10,16,42,1.40
2009,12,10,16,43,1.40
2009,12,10,16,44,1.40
2009,12,10,16,45,1.40
2009,12,10,16,46,1.40
2009,12,10,16,47,1.40
2009,12,10,16,48,1.40
2009,12,10,16,49,1.40
2009,12,10,16,50,1.40
2009,12,10,16,51,1.40
2009,12,10,16,52,1.40
2009,12,10,16,53,1.40
2009,12,10,16,54,1.40
2009,12,10,16,55,1.40
2009,12,10,16,56,1.40
2009,12,10,16,57,1.40
2009,12,10,16,58,1.40
2009,12,10,16,59,1.40
2009,12,10,17,00,1.40
2009,12,10,17,01,1.40
2009,12,10,17,02,1.40
2009,12,10,17,03,1.40
2009,12,10,17,04,1.40
2009,12,10,17,05,1.40
2009,12,10,17,06,1.40
2009,12,10,17,07,1.30
2009,12,10,17,08,1.30
2009,12,10,17,09,1.30
2009,12,10,17,10,1.40
2009,12,10,17,11,1.40
2009,12,10,17,12,1.40
2009,12,10,17,13,1.40
2009,12,10,17,14,1.40
2009,12,10,17,15,1.40
2009,12,10,17,16,1.40
2009,12,10,17,17,1.40
2009,12,10,17,18,1.40
2009,12,10,17,19,1.30
2009,12,10,17,20,1.30
2009,12,10,17,21,1.30
2009,12,10,17,22,1.30
2009,12,10,17,23,1.30
2009,12,10,17,24,1.30
2009,12,10,17,25,1.30
2009,12,10,17,26,1.30
2009,12,10,17,27,1.30
2009,12,10,17,28,1.30
2009,12,10,17,29,1.30
2009,12,10,17,30,1.30
2009,12,10,17,31,1.30
2009,12,10,17,32,1.30
2009,12,10,17,33,1.30
2009,12,10,17,34,1.30
2009,12,10,17,35,1.30
2009,12,10,17,36,1.30
2009,12,10,17,37,1.30
2009,12,10,17,38,1.30
2009,12,10,17,39,1.30
2009,12,10,17,40,1.30
2009,12,10,17,41,1.30
2009,12,10,17,42,1.30
2009,12,10,17,43,1.30
2009,12,10,17,44,1.30
2009,12,10,17,45,1.30
2009,12,10,17,46,1.30
2009,12,10,17,47,1.20
2009,12,10,17,48,1.20
2009,12,10,17,49,1.20
2009,12,10,17,50,1.20
2009,12,10,17,51,1.20
2009,12,10,17,52,1.20
2009,12,10,17,53,1.20
2009,12,10,17,54,1.20
2009,12,10,17,55,1.20
2009,12,10,17,56,1.20
2009,12,10,17,57,1.20
2009,12,10,17,58,1.20
2009,12,10,17,59,1.20
2009,12,10,18,00,1.20
2009,12,10,18,01,1.20
2009,12,10,18,02,1.20
2009,12,10,18,03,1.30
2009,12,10,18,04,1.30
2009,12,10,18,05,1.30
2009,12,10,18,06,1.30
2009,12,10,18,07,1.30
2009,12,10,18,08,1.30
2009,12,10,18,09,1.30
2009,12,10,18,10,1.30
2009,12,10,18,11,1.30
2009,12,10,18,12,1.30
2009,12,10,18,13,1.30
2009,12,10,18,14,1.30
2009,12,10,18,15,1.30
2009,12,10,18,16,1.30
2009,12,10,18,17,1.30
2009,12,10,18,18,1.30
2009,12,10,18,19,1.30
2009,12,10,18,20,1.20
2009,12,10,18,21,1.20
2009,12,10,18,22,1.20
2009,12,10,18,23,1.20
2009,12,10,18,24,1.20
2009,12,10,18,25,1.20
2009,12,10,18,26,1.20
2009,12,10,18,27,1.20
2009,12,10,18,28,1.20
2009,12,10,18,29,1.20
2009,12,10,18,30,1.20
2009,12,10,18,31,1.20
2009,12,10,18,32,1.20
2009,12,10,18,33,1.20
2009,12,10,18,34,1.20
2009,12,10,18,35,1.20
2009,12,10,18,36,1.20
2009,12,10,18,37,1.20
2009,12,10,18,38,1.20
2009,12,10,18,39,1.20
2009,12,10,18,40,1.20
2009,12,10,18,41,1.20
2009,12,10,18,42,1.20
2009,12,10,18,43,1.20
2009,12,10,18,44,1.20
2009,12,10,18,45,1.20
2009,12,10,18,46,1.20
2009,12,10,18,47,1.20
2009,12,10,18,48,1.20
2009,12,10,18,49,1.20
2009,12,10,18,50,1.20
2009,12,10,18,51,1.20
2009,12,10,18,52,1.20
2009,12,10,18,53,1.20
2009,12,10,18,54,1.20
2009,12,10,18,55,1.20
2009,12,10,18,56,1.20
2009,12,10,18,57,1.30
2009,12,10,18,58,1.30
2009,12,10,18,59,1.30
2009,12,10,19,00,1.30
2009,12,10,19,01,1.30
2009,12,10,19,02,1.30
2009,12,10,19,03,1.30
2009,12,10,19,04,1.30
2009,12,10,19,05,1.30
2009,12,10,19,06,1.30
2009,12,10,19,07,1.30
2009,12,10,19,08,1.20
2009,12,10,19,09,1.20
2009,12,10,19,10,1.20
2009,12,10,19,11,1.20
2009,12,10,19,12,1.20
2009,12,10,19,13,1.20
2009,12,10,19,14,1.20
2009,12,10,19,15,1.20
2009,12,10,19,16,1.20
2009,12,10,19,17,1.20
2009,12,10,19,18,1.20
2009,12,10,19,19,1.20
2009,12,10,19,20,1.20
2009,12,10,19,21,1.20
2009,12,10,19,22,1.20
2009,12,10,19,23,1.20
2009,12,10,19,24,1.20
2009,12,10,19,25,1.20
2009,12,10,19,26,1.20
2009,12,10,19,27,1.20
2009,12,10,19,28,1.30
2009,12,10,19,29,1.30
2009,12,10,19,30,1.30
2009,12,10,19,31,1.30
2009,12,10,19,32,1.30
2009,12,10,19,33,1.20
2009,12,10,19,34,1.20
2009,12,10,19,35,1.20
2009,12,10,19,36,1.20
2009,12,10,19,37,1.20
2009,12,10,19,38,1.20
2009,12,10,19,39,1.20
2009,12,10,19,40,1.20
2009,12,10,19,41,1.20
2009,12,10,19,42,1.20
2009,12,10,19,43,1.20
2009,12,10,19,44,1.20
2009,12,10,19,45,1.20
2009,12,10,19,46,1.30
2009,12,10,19,47,1.30
2009,12,10,19,48,1.30
2009,12,10,19,49,1.30
2009,12,10,19,50,1.30
2009,12,10,19,51,1.40
2009,12,10,19,52,1.40
2009,12,10,19,53,1.50
2009,12,10,19,54,1.50
2009,12,10,19,55,1.50
2009,12,10,19,56,1.50
2009,12,10,19,57,1.50
2009,12,10,19,58,1.50
2009,12,10,19,59,1.50
2009,12,10,20,00,1.50
2009,12,10,20,01,1.50
2009,12,10,20,02,1.50
2009,12,10,20,03,1.50
2009,12,10,20,04,1.50
2009,12,10,20,05,1.50
2009,12,10,20,06,1.40
2009,12,10,20,07,1.40
2009,12,10,20,08,1.40
2009,12,10,20,09,1.40
2009,12,10,20,10,1.40
2009,12,10,20,11,1.40
2009,12,10,20,12,1.40
2009,12,10,20,13,1.30
2009,12,10,20,14,1.30
2009,12,10,20,15,1.30
2009,12,10,20,16,1.30
2009,12,10,20,17,1.30
2009,12,10,20,18,1.30
2009,12,10,20,19,1.30
2009,12,10,20,20,1.30
2009,12,10,20,21,1.30
2009,12,10,20,22,1.30
2009,12,10,20,23,1.30
2009,12,10,20,24,1.30
2009,12,10,20,25,1.30
2009,12,10,20,26,1.30
2009,12,10,20,27,1.30
2009,12,10,20,28,1.30
2009,12,10,20,29,1.30
2009,12,10,20,30,1.30
2009,12,10,20,31,1.30
2009,12,10,20,32,1.20
2009,12,10,20,33,1.20
2009,12,10,20,34,1.20
2009,12,10,20,35,1.30
2009,12,10,20,36,1.30
2009,12,10,20,37,1.30
2009,12,10,20,38,1.30
2009,12,10,20,39,1.40
2009,12,10,20,40,1.40
2009,12,10,20,41,1.40
2009,12,10,20,42,1.40
2009,12,10,20,43,1.40
2009,12,10,20,44,1.40
2009,12,10,20,45,1.40
2009,12,10,20,46,1.40
2009,12,10,20,47,1.40
2009,12,10,20,48,1.40
2009,12,10,20,49,1.40
2009,12,10,20,50,1.40
2009,12,10,20,51,1.40
2009,12,10,20,52,1.40
2009,12,10,20,53,1.50
2009,12,10,20,54,1.50
2009,12,10,20,55,1.50
2009,12,10,20,56,1.60
2009,12,10,20,57,1.60
2009,12,10,20,58,1.60
2009,12,10,20,59,1.60
2009,12,10,21,00,1.60
2009,12,10,21,01,1.60
2009,12,10,21,02,1.60
2009,12,10,21,03,1.60
2009,12,10,21,04,1.60
2009,12,10,21,05,1.60
2009,12,10,21,06,1.60
2009,12,10,21,07,1.60
2009,12,10,21,08,1.60
2009,12,10,21,09,1.60
2009,12,10,21,10,1.60
2009,12,10,21,11,1.60
2009,12,10,21,12,1.60
2009,12,10,21,13,1.70
2009,12,10,21,14,1.70
2009,12,10,21,15,1.70
2009,12,10,21,16,1.80
2009,12,10,21,17,1.80
2009,12,10,21,18,1.80
2009,12,10,21,19,1.80
2009,12,10,21,20,1.80
2009,12,10,21,21,1.80
2009,12,10,21,22,1.80
2009,12,10,21,23,1.80
2009,12,10,21,24,1.80
2009,12,10,21,25,1.70
2009,12,10,21,26,1.70
2009,12,10,21,27,1.70
2009,12,10,21,28,1.70
2009,12,10,21,29,1.70
2009,12,10,21,30,1.70
2009,12,10,21,31,1.70
2009,12,10,21,32,1.70
2009,12,10,21,33,1.70
2009,12,10,21,34,1.70
2009,12,10,21,35,1.60
2009,12,10,21,36,1.60
2009,12,10,21,37,1.60
2009,12,10,21,38,1.60
2009,12,10,21,39,1.60
2009,12,10,21,40,1.50
2009,12,10,21,41,1.50
2009,12,10,21,42,1.50
2009,12,10,21,43,1.50
2009,12,10,21,44,1.50
2009,12,10,21,45,1.50
2009,12,10,21,46,1.50
2009,12,10,21,47,1.40
2009,12,10,21,48,1.40
2009,12,10,21,49,1.40
2009,12,10,21,50,1.40
2009,12,10,21,51,1.40
2009,12,10,21,52,1.30
2009,12,10,21,53,1.30
2009,12,10,21,54,1.30
2009,12,10,21,55,1.30
2009,12,10,21,56,1.30
2009,12,10,21,57,1.30
2009,12,10,21,58,1.30
2009,12,10,21,59,1.30
2009,12,10,22,00,1.30
2009,12,10,22,01,1.30
2009,12,10,22,02,1.20
2009,12,10,22,03,1.20
2009,12,10,22,04,1.20
2009,12,10,22,05,1.20
2009,12,10,22,06,1.10
2009,12,10,22,07,1.10
2009,12,10,22,08,1.10
2009,12,10,22,09,1.10
2009,12,10,22,10,1.10
2009,12,10,22,11,1.00
2009,12,10,22,12,1.00
2009,12,10,22,13,1.00
2009,12,10,22,14,1.00
2009,12,10,22,15,1.00
2009,12,10,22,16,1.00
2009,12,10,22,17,1.00
2009,12,10,22,18,1.00
2009,12,10,22,19,1.00
2009,12,10,22,20,1.00
2009,12,10,22,21,1.00
2009,12,10,22,22,1.00
2009,12,10,22,23,1.00
2009,12,10,22,24,1.00
2009,12,10,22,25,1.00
2009,12,10,22,26,1.00
2009,12,10,22,27,1.00
2009,12,10,22,28,1.00
2009,12,10,22,29,1.00
2009,12,10,22,30,1.00
2009,12,10,22,31,1.00
2009,12,10,22,32,1.00
2009,12,10,22,33,1.00
2009,12,10,22,34,1.00
2009,12,10,22,35,1.00
2009,12,10,22,36,1.00
2009,12,10,22,37,1.00
2009,12,10,22,38,1.00
2009,12,10,22,39,1.00
2009,12,10,22,40,1.00
2009,12,10,22,41,1.00
2009,12,10,22,42,1.00
2009,12,10,22,43,1.00
2009,12,10,22,44,1.00
2009,12,10,22,45,1.00
2009,12,10,22,46,1.00
2009,12,10,22,47,1.00
2009,12,10,22,48,1.00
2009,12,10,22,49,1.00
2009,12,10,22,50,1.00
2009,12,10,22,51,1.00
2009,12,10,22,52,1.00
2009,12,10,22,53,1.00
2009,12,10,22,54,1.00
2009,12,10,22,55,1.00
2009,12,10,22,56,1.00
2009,12,10,22,57,1.00
2009,12,10,22,58,1.00
2009,12,10,22,59,1.00
2009,12,10,23,00,1.00
2009,12,10,23,01,1.00
2009,12,10,23,02,1.00
2009,12,10,23,03,1.00
2009,12,10,23,04,1.00
2009,12,10,23,05,1.00
2009,12,10,23,06,1.00
2009,12,10,23,07,1.00
2009,12,10,23,08,1.00
2009,12,10,23,09,1.00
2009,12,10,23,10,1.00
2009,12,10,23,11,1.00
2009,12,10,23,12,1.00
2009,12,10,23,13,1.00
2009,12,10,23,14,1.00
2009,12,10,23,15,1.00
2009,12,10,23,16,1.00
2009,12,10,23,17,1.00
2009,12,10,23,18,1.00
2009,12,10,23,19,1.00
2009,12,10,23,20,1.00
2009,12,10,23,21,1.00
2009,12,10,23,22,1.00
2009,12,10,23,23,1.00
2009,12,10,23,24,1.00
2009,12,10,23,25,1.00
2009,12,10,23,26,1.00
2009,12,10,23,27,1.00
2009,12,10,23,28,1.00
2009,12,10,23,29,1.00
2009,12,10,23,30,1.00
2009,12,10,23,31,1.00
2009,12,10,23,32,1.00
2009,12,10,23,33,1.00
2009,12,10,23,34,1.00
2009,12,10,23,35,1.00
2009,12,10,23,36,1.00
2009,12,10,23,37,1.00
2009,12,10,23,38,1.00
2009,12,10,23,39,1.00
2009,12,10,23,40,1.00
2009,12,10,23,41,1.00
2009,12,10,23,42,1.00
2009,12,10,23,43,1.00
2009,12,10,23,44,1.00
2009,12,10,23,45,1.00
2009,12,10,23,46,1.00
2009,12,10,23,47,1.00
2009,12,10,23,48,1.00
2009,12,10,23,49,1.00
2009,12,10,23,50,1.00
2009,12,10,23,51,1.00
2009,12,10,23,52,1.00
2009,12,10,23,53,1.00
2009,12,10,23,54,1.00
2009,12,10,23,55,1.00
2009,12,10,23,56,1.00
2009,12,10,23,57,1.00
2009,12,10,23,58,1.00
2009,12,10,23,59,1.00
